Location: Saint-Restitut
(44.3351°N, 4.7915°E)
Time: 11:49:15
(UTC+00:00)

Cosmos 540 Rocket - Pass Details

Date: 03 February 2023
Orbit: 740 x 751 km, 74.1° (Epoch: 19 March)

Event Time Altitude Azimuth Distance (km) Brightness Sun altitude
Rises 18:32:13 0° 337° (NNW) 3,205 6.9 -18.0°
Reaches altitude 10° 18:34:36 10° 336° (NNW) 2,275 6.2 -18.5°
Maximum altitude 18:39:44 75° 252° (WSW) 776 3.6 -19.4°
Drops below altitude 10° 18:44:50 10° 168° (SSE) 2,251 5.8 -20.3°
Sets 18:47:10 0° 166° (SSE) 3,168 6.6 -20.7°
